sat.trackr.live / text

‹ back to catalog

STARLINK-37051

NORAD 68080 · 2026-042M

PAYLOAD ACTIVE UNKNOWN

§ Identity

Operator
Country
US
Launch date
2026-03-04
Launch site
AFETR
Launch vehicle
Mass (kg)
RCS (m²)

Purposes: comms

External: N2YO · Heavens-Above · Gunter

§ Orbital elements

Epoch: 2026-09-19T18:22:56.669952Z

Period
93.85 min
Inclination
53.1615°
Eccentricity
0.0000948
Mean motion
15.34394248 rev/d
Perigee alt
462.1 km
Apogee alt
463.4 km
Semi-major
6,840.9 km
B*
4.9117e-4
RAAN
351.2281°
Arg perigee
19.3150°
Mean anomaly
340.7888°
Rev number
3,210

§ Raw data

STARLINK-370511 68080U 26042M   26262.76593368  .00016252  00000+0  49117-3 0  99912 68080  53.1615 351.2281 0000948  19.3150 340.7888 15.34394248 32104

JSON: /api/v1/satellites/68080 · /tle

For live sub-satellite position, see the globe view (requires WebGL).

§ Visibility from observer

Set your observer location to see the next 7 days of passes ≥ 10°. The values pass through the URL so the page stays shareable.

No JS? Fill the form by hand. The geolocation button needs JavaScript.